�������l�o���
Date,Time,MP-1(��Sv/h),MP-2(��Sv/h),MP-3(��Sv/h),MP-4(��Sv/h),MP-5(��Sv/h),MP-6(��Sv/h),MP-7(��Sv/h),MP-8(��Sv/h),����,����(m/s),���J
2024/02/01,00:00,0.514,0.776,0.488,0.978,0.695,0.314,0.559,0.523,��,4.7,��
2024/02/01,00:10,0.515,0.779,0.487,0.979,0.694,0.315,0.559,0.525,��,3.6,��
2024/02/01,00:20,0.514,0.779,0.488,0.979,0.695,0.315,0.559,0.524,��,3.4,��
2024/02/01,00:30,0.514,0.779,0.487,0.977,0.694,0.315,0.558,0.524,��,5.0,��
2024/02/01,00:40,0.515,0.778,0.488,0.980,0.695,0.314,0.559,0.524,���쐼,6.1,��
2024/02/01,00:50,0.514,0.778,0.488,0.978,0.695,0.315,0.560,0.524,��,5.8,��
2024/02/01,01:00,0.515,0.777,0.488,0.982,0.696,0.314,0.559,0.524,��,7.0,��
2024/02/01,01:10,0.514,0.776,0.487,0.978,0.695,0.316,0.559,0.525,��,7.4,��
2024/02/01,01:20,0.514,0.777,0.487,0.979,0.695,0.317,0.559,0.524,��,4.3,��
2024/02/01,01:30,0.514,0.776,0.485,0.982,0.695,0.315,0.559,0.524,��,4.8,��
2024/02/01,01:40,0.514,0.778,0.487,0.977,0.695,0.316,0.558,0.524,��,3.2,��
2024/02/01,01:50,0.514,0.778,0.486,0.979,0.696,0.314,0.558,0.526,���쐼,3.2,��
2024/02/01,02:00,0.513,0.778,0.488,0.978,0.695,0.315,0.560,0.524,��,3.7,��
2024/02/01,02:10,0.514,0.778,0.487,0.978,0.694,0.315,0.559,0.523,��,2.8,��
2024/02/01,02:20,0.513,0.778,0.488,0.979,0.697,0.316,0.559,0.524,���쐼,2.3,��
2024/02/01,02:30,0.513,0.779,0.487,0.979,0.694,0.315,0.559,0.524,���쐼,1.5,��
2024/02/01,02:40,0.513,0.777,0.486,0.979,0.695,0.316,0.559,0.525,��,3.5,��
2024/02/01,02:50,0.514,0.777,0.487,0.979,0.695,0.316,0.559,0.524,���쐼,2.6,��
2024/02/01,03:00,0.514,0.777,0.486,0.982,0.693,0.314,0.560,0.524,���쐼,1.8,��
2024/02/01,03:10,0.514,0.778,0.486,0.976,0.696,0.314,0.559,0.525,���쐼,2.0,��
2024/02/01,03:20,0.514,0.778,0.488,0.978,0.695,0.315,0.559,0.525,��,2.6,��
2024/02/01,03:30,0.514,0.776,0.487,0.978,0.694,0.315,0.562,0.523,���k��,2.6,��
2024/02/01,03:40,0.513,0.776,0.487,0.976,0.695,0.315,0.560,0.523,���k��,4.4,��
2024/02/01,03:50,0.514,0.777,0.488,0.980,0.692,0.315,0.560,0.524,���k��,5.1,��
2024/02/01,04:00,0.513,0.778,0.487,0.978,0.694,0.315,0.561,0.523,���k��,5.2,��
2024/02/01,04:10,0.514,0.779,0.487,0.978,0.694,0.317,0.560,0.524,���k��,7.3,��
2024/02/01,04:20,0.514,0.776,0.487,0.981,0.697,0.314,0.560,0.525,���k��,5.7,��
2024/02/01,04:30,0.513,0.778,0.488,0.978,0.696,0.315,0.559,0.525,���k��,5.4,��
2024/02/01,04:40,0.513,0.777,0.488,0.979,0.696,0.314,0.560,0.522,���k��,6.5,��
2024/02/01,04:50,0.514,0.778,0.486,0.978,0.694,0.315,0.561,0.523,���k��,7.0,��
2024/02/01,05:00,0.512,0.779,0.486,0.979,0.695,0.315,0.561,0.525,�k��,7.0,��
2024/02/01,05:10,0.516,0.777,0.488,0.979,0.694,0.316,0.559,0.524,���k��,7.0,��
2024/02/01,05:20,0.514,0.779,0.487,0.980,0.696,0.316,0.559,0.523,���k��,6.6,��
2024/02/01,05:30,0.512,0.777,0.487,0.978,0.695,0.317,0.560,0.525,���k��,4.3,��
2024/02/01,05:40,0.514,0.777,0.488,0.978,0.697,0.316,0.559,0.523,���k��,6.0,��
2024/02/01,05:50,0.515,0.779,0.488,0.978,0.697,0.316,0.558,0.524,���k��,5.2,��
2024/02/01,06:00,0.515,0.779,0.487,0.979,0.695,0.316,0.560,0.524,�k��,6.5,��
2024/02/01,06:10,0.515,0.777,0.488,0.979,0.694,0.314,0.560,0.524,���k��,6.7,��
2024/02/01,06:20,0.514,0.778,0.489,0.980,0.697,0.315,0.560,0.523,�k��,8.9,��
2024/02/01,06:30,0.514,0.775,0.486,0.979,0.695,0.316,0.560,0.523,���k��,8.6,��
2024/02/01,06:40,0.515,0.777,0.489,0.981,0.696,0.315,0.560,0.525,��,5.7,��
2024/02/01,06:50,0.512,0.777,0.487,0.977,0.696,0.315,0.560,0.524,�k��,4.5,��
2024/02/01,07:00,0.514,0.778,0.487,0.980,0.694,0.315,0.560,0.524,�k��,2.6,��
2024/02/01,07:10,0.515,0.777,0.488,0.981,0.695,0.316,0.560,0.523,�k��,3.3,��
2024/02/01,07:20,0.515,0.777,0.488,0.980,0.695,0.316,0.560,0.524,�k��,3.2,��
2024/02/01,07:30,0.514,0.777,0.488,0.980,0.694,0.316,0.559,0.525,�k��,2.3,��
2024/02/01,07:40,0.513,0.779,0.489,0.979,0.697,0.315,0.562,0.524,�k��,3.6,��
2024/02/01,07:50,0.515,0.777,0.489,0.977,0.696,0.315,0.561,0.525,�k�k��,3.0,��
2024/02/01,08:00,0.513,0.777,0.489,0.980,0.696,0.316,0.562,0.524,�k�k��,3.4,��
2024/02/01,08:10,0.514,0.778,0.487,0.979,0.695,0.316,0.561,0.525,�k�k��,4.3,��
2024/02/01,08:20,0.514,0.776,0.488,0.979,0.695,0.316,0.562,0.525,�k��,5.4,��
2024/02/01,08:30,0.514,0.777,0.488,0.978,0.694,0.315,0.561,0.525,�k�k��,5.6,��
2024/02/01,08:40,0.514,0.778,0.487,0.978,0.695,0.314,0.561,0.526,�k�k��,5.3,��
2024/02/01,08:50,0.514,0.779,0.487,0.980,0.695,0.315,0.561,0.525,�k�k��,5.4,��
2024/02/01,09:00,0.516,0.779,0.487,0.982,0.698,0.314,0.561,0.524,�k�k��,5.9,��
2024/02/01,09:10,0.515,0.778,0.487,0.981,0.695,0.314,0.559,0.523,�k��,7.2,��
2024/02/01,09:20,0.516,0.780,0.487,0.981,0.697,0.316,0.559,0.525,�k��,5.6,��
2024/02/01,09:30,0.516,0.779,0.487,0.979,0.696,0.315,0.559,0.525,�k��,6.4,��
2024/02/01,09:40,0.516,0.779,0.489,0.982,0.697,0.315,0.558,0.526,�k��,6.4,��
2024/02/01,09:50,0.516,0.778,0.486,0.980,0.694,0.314,0.558,0.523,�k��,7.4,��
2024/02/01,10:00,0.514,0.777,0.489,0.980,0.697,0.316,0.559,0.526,�k��,6.6,��
2024/02/01,10:10,0.514,0.775,0.487,0.980,0.696,0.314,0.558,0.525,�k�k��,4.2,��
2024/02/01,10:20,0.514,0.775,0.489,0.981,0.697,0.315,0.559,0.524,�k�k��,4.3,��
2024/02/01,10:30,0.513,0.776,0.489,0.981,0.699,0.314,0.559,0.524,�k�k��,4.9,��
2024/02/01,10:40,0.513,0.774,0.489,0.979,0.698,0.317,0.558,0.525,�k�k��,5.4,��
2024/02/01,10:50,0.515,0.777,0.490,0.982,0.699,0.315,0.560,0.524,�k�k��,4.9,��
2024/02/01,11:00,0.517,0.778,0.488,0.983,0.697,0.316,0.560,0.525,�k�k��,6.4,��
2024/02/01,11:10,0.517,0.779,0.489,0.979,0.697,0.316,0.559,0.525,�k��,7.0,��
2024/02/01,11:20,0.516,0.777,0.490,0.981,0.696,0.316,0.560,0.526,�k�k��,6.5,��
2024/02/01,11:30,0.517,0.777,0.489,0.982,0.696,0.316,0.559,0.525,�k��,6.5,��
2024/02/01,11:40,0.515,0.778,0.489,0.981,0.696,0.315,0.558,0.526,�k��,6.3,��
2024/02/01,11:50,0.513,0.777,0.489,0.983,0.693,0.316,0.561,0.527,�k�k��,5.5,��
2024/02/01,12:00,0.514,0.777,0.490,0.980,0.698,0.316,0.559,0.526,�k�k��,7.9,��
2024/02/01,12:10,0.514,0.776,0.489,0.982,0.696,0.315,0.560,0.526,�k�k��,5.4,��
2024/02/01,12:20,0.514,0.777,0.488,0.980,0.695,0.316,0.560,0.525,�k�k��,4.7,��
2024/02/01,12:30,0.515,0.777,0.489,0.982,0.695,0.315,0.561,0.525,�k,3.9,��
2024/02/01,12:40,0.515,0.778,0.488,0.980,0.695,0.316,0.560,0.524,�k�k��,3.6,��
2024/02/01,12:50,0.515,0.779,0.488,0.983,0.695,0.316,0.559,0.524,�k,3.5,��
2024/02/01,13:00,0.516,0.775,0.488,0.981,0.695,0.317,0.559,0.526,�k,4.5,��
2024/02/01,13:10,0.513,0.778,0.489,0.982,0.697,0.318,0.559,0.525,�k�k��,4.5,��
2024/02/01,13:20,0.516,0.779,0.488,0.982,0.697,0.316,0.560,0.524,�k�k��,6.2,��
2024/02/01,13:30,0.516,0.777,0.488,0.980,0.695,0.316,0.560,0.522,�k�k��,5.9,�L
2024/02/01,13:40,0.515,0.779,0.488,0.981,0.696,0.315,0.561,0.522,�k�k��,5.0,��
2024/02/01,13:50,0.516,0.776,0.488,0.983,0.695,0.316,0.560,0.522,�k�k��,5.0,��
2024/02/01,14:00,0.517,0.777,0.489,0.981,0.695,0.315,0.559,0.523,�k�k��,5.6,��
2024/02/01,14:10,0.516,0.780,0.489,0.982,0.695,0.315,0.560,0.522,�k�k��,3.9,��
2024/02/01,14:20,0.516,0.780,0.488,0.980,0.694,0.317,0.559,0.524,���k��,2.2,��
2024/02/01,14:30,0.515,0.782,0.488,0.982,0.697,0.315,0.558,0.524,��,3.8,��
2024/02/01,14:40,0.516,0.779,0.489,0.981,0.697,0.315,0.559,0.523,��,4.6,��
2024/02/01,14:50,0.514,0.778,0.487,0.984,0.695,0.315,0.561,0.524,��,4.4,��
2024/02/01,15:00,0.513,0.778,0.488,0.982,0.695,0.315,0.559,0.522,��,5.2,��
2024/02/01,15:10,0.515,0.776,0.487,0.982,0.694,0.316,0.559,0.522,��,5.4,��
2024/02/01,15:20,0.515,0.778,0.488,0.985,0.695,0.315,0.557,0.521,���k��,9.8,��
2024/02/01,15:30,0.513,0.779,0.489,0.984,0.695,0.316,0.560,0.522,���k��,9.3,��
2024/02/01,15:40,0.513,0.778,0.488,0.983,0.694,0.316,0.559,0.524,�k��,7.8,��
2024/02/01,15:50,0.513,0.778,0.487,0.983,0.697,0.316,0.559,0.523,�k��,6.0,��
2024/02/01,16:00,0.512,0.782,0.488,0.981,0.695,0.315,0.559,0.523,�k��,8.0,��
2024/02/01,16:10,0.513,0.780,0.488,0.983,0.695,0.316,0.559,0.523,�k�k��,7.5,��
2024/02/01,16:20,0.512,0.779,0.486,0.981,0.695,0.315,0.559,0.526,�k�k��,7.6,��
2024/02/01,16:30,0.511,0.780,0.487,0.980,0.694,0.313,0.558,0.526,�k�k��,7.1,��
2024/02/01,16:40,0.513,0.779,0.487,0.984,0.693,0.314,0.560,0.524,�k�k��,7.5,��
2024/02/01,16:50,0.513,0.780,0.489,0.983,0.695,0.316,0.557,0.524,�k�k��,6.5,��
2024/02/01,17:00,0.513,0.779,0.488,0.982,0.697,0.315,0.558,0.524,�k�k��,6.1,��
2024/02/01,17:10,0.515,0.779,0.488,0.982,0.697,0.315,0.560,0.523,�k�k��,4.6,��
2024/02/01,17:20,0.514,0.778,0.487,0.983,0.699,0.314,0.561,0.524,�k��,5.3,��
2024/02/01,17:30,0.514,0.781,0.488,0.981,0.698,0.314,0.561,0.525,�k�k��,6.3,��
2024/02/01,17:40,0.513,0.780,0.487,0.983,0.697,0.315,0.558,0.524,�k�k��,5.9,��
2024/02/01,17:50,0.513,0.782,0.488,0.984,0.698,0.314,0.559,0.523,�k�k��,6.4,��
2024/02/01,18:00,0.515,0.780,0.488,0.982,0.696,0.314,0.561,0.523,�k�k��,4.5,��
2024/02/01,18:10,0.513,0.780,0.487,0.984,0.697,0.315,0.560,0.522,�k�k��,5.7,��
2024/02/01,18:20,0.514,0.779,0.488,0.981,0.697,0.313,0.559,0.525,�k�k��,5.0,��
2024/02/01,18:30,0.513,0.780,0.487,0.983,0.698,0.313,0.560,0.522,�k,5.2,��
2024/02/01,18:40,0.514,0.780,0.487,0.980,0.697,0.313,0.559,0.523,�k�k��,6.9,��
2024/02/01,18:50,0.514,0.780,0.487,0.982,0.699,0.313,0.562,0.523,�k�k��,5.9,��
2024/02/01,19:00,0.513,0.779,0.488,0.982,0.696,0.313,0.557,0.524,�k�k��,7.0,��
2024/02/01,19:10,0.513,0.781,0.487,0.983,0.697,0.312,0.558,0.523,�k�k��,7.0,��
2024/02/01,19:20,0.514,0.779,0.486,0.981,0.699,0.312,0.559,0.523,�k�k��,5.6,��
2024/02/01,19:30,0.512,0.779,0.487,0.982,0.696,0.313,0.559,0.524,�k�k��,6.8,��
2024/02/01,19:40,0.513,0.777,0.488,0.980,0.698,0.312,0.560,0.523,�k�k��,6.6,��
2024/02/01,19:50,0.513,0.779,0.488,0.983,0.697,0.313,0.560,0.522,�k,4.9,��
2024/02/01,20:00,0.513,0.780,0.486,0.982,0.698,0.313,0.561,0.522,�k�k��,5.9,��
2024/02/01,20:10,0.513,0.780,0.486,0.982,0.698,0.311,0.559,0.522,�k�k��,5.9,��
2024/02/01,20:20,0.513,0.779,0.487,0.982,0.696,0.312,0.561,0.522,�k�k��,5.6,��
2024/02/01,20:30,0.513,0.782,0.486,0.981,0.696,0.313,0.559,0.524,�k,4.5,��
2024/02/01,20:40,0.513,0.779,0.486,0.982,0.697,0.311,0.559,0.522,�k,5.2,��
2024/02/01,20:50,0.514,0.778,0.487,0.980,0.696,0.313,0.559,0.522,�k�k��,5.5,��
2024/02/01,21:00,0.513,0.779,0.486,0.980,0.696,0.312,0.558,0.523,�k��,5.5,��
2024/02/01,21:10,0.512,0.779,0.486,0.980,0.696,0.313,0.559,0.522,�k��,4.9,��
2024/02/01,21:20,0.513,0.780,0.486,0.981,0.697,0.314,0.559,0.522,�k��,5.0,��
2024/02/01,21:30,0.513,0.780,0.485,0.980,0.697,0.312,0.561,0.522,�k��,5.2,��
2024/02/01,21:40,0.513,0.780,0.486,0.981,0.697,0.311,0.560,0.523,�k��,4.3,��
2024/02/01,21:50,0.513,0.778,0.485,0.978,0.697,0.312,0.558,0.523,�k��,5.1,��
2024/02/01,22:00,0.512,0.780,0.485,0.982,0.698,0.311,0.559,0.522,�k��,2.9,��
2024/02/01,22:10,0.512,0.778,0.486,0.983,0.695,0.313,0.558,0.522,�k��,3.0,��
2024/02/01,22:20,0.510,0.778,0.485,0.981,0.698,0.312,0.559,0.521,���k��,3.3,��
2024/02/01,22:30,0.513,0.780,0.486,0.979,0.695,0.312,0.560,0.522,���k��,4.2,��
2024/02/01,22:40,0.512,0.779,0.484,0.980,0.697,0.311,0.560,0.523,��,3.8,��
2024/02/01,22:50,0.512,0.780,0.485,0.980,0.698,0.313,0.559,0.522,���k��,3.0,��
2024/02/01,23:00,0.511,0.778,0.486,0.978,0.695,0.311,0.559,0.522,�k��,3.8,��
2024/02/01,23:10,0.512,0.777,0.485,0.980,0.697,0.312,0.560,0.523,�k��,3.1,��
2024/02/01,23:20,0.510,0.779,0.485,0.979,0.696,0.312,0.560,0.523,�k��,4.2,��
2024/02/01,23:30,0.512,0.780,0.484,0.982,0.697,0.312,0.559,0.521,�k��,5.2,��
2024/02/01,23:40,0.512,0.779,0.483,0.981,0.696,0.312,0.560,0.523,�k��,3.6,��
2024/02/01,23:50,0.512,0.779,0.485,0.979,0.696,0.314,0.560,0.523,�k��,5.3,��
